Regional Weather Roundup
Issued by NWS

Home | Current Version | Previous Version | Text Only | Print | Product List | Glossary Off
Versions: 1 2 3 4 5 6 7 8 9 10 11 12 13 14 15 16 17 18 19 20 21 22 23 24 25 26 27 28 29 30 31 32 33 34 35 36 37 38 39 40 41 42 43 44 45 46 47 48 49 50

691
ASUS43 KDTX 290410
RWRMI
MICHIGAN HOURLY REGIONAL WEATHER ROUNDUP
NATIONAL WEATHER SERVICE DETROIT/PONTIAC MI
ISSUED BY NATIONAL WEATHER SERVICE GRAND RAPIDS MI
1200 AM EDT MON MAY 29 2017

NOTE: "FAIR" INDICATES FEW OR NO CLOUDS BELOW 12,000 FEET WITH NO
SIGNIFICANT WEATHER AND/OR OBSTRUCTION TO VISIBILITY.

MIZ047>049-052>055-059>063-066>070-074>076-081>083-290500-
SOUTHEAST LOWER MICHIGAN

CITY           SKY/WX    TMP DP  RH WIND       PRES   REMARKS
ADRIAN         MOCLDY    63  59  87 W7        29.75R
ALMA           CLEAR     60  53  78 W5        29.71S
ANN ARBOR      PTCLDY    58  58 100 SW5       29.72R FOG
BAD AXE        CLOUDY    61  60  96 CALM      29.69F
DETROIT CITY   CLOUDY    61  59  93 SW8       29.71F
DETROIT        CLOUDY    63  61  93 S7        29.72S
FLINT          CLOUDY    63  58  83 W7        29.70R
GROSSE ILE     HVY RAIN  61  60  95 S6        29.71S
HILLSDALE      CLEAR     57  52  82 W5        29.76R
HOWELL         CLOUDY    61  55  82 W5        29.72R

CITY           SKY/WX    TMP DP  RH WIND       PRES   REMARKS
JACKSON        CLEAR     61  53  75 W7        29.74R
LANSING        CLEAR     62  52  69 W8        29.73S
MASON          CLEAR     62  54  75 W5        29.73S
MONROE         CLOUDY    61  60  97 CALM      29.72R
MT. CLEMENS    CLOUDY    61  61 100 W5        29.70S
PONTIAC        PTCLDY    61  59  93 SW3       29.70S
PORT HOPE        N/A     57  55  93 E5        29.67F
PORT HURON     CLOUDY    61  59  94 S5        29.69F
TRI CITIES     CLEAR     63  56  78 W6        29.70R
YPSILANTI      CLOUDY    63  61  93 SW6       29.72S
$$
MIZ043>046-050>051-056>058-064>065-071>073-077>080-290500-
SOUTHWEST LOWER MICHIGAN

CITY           SKY/WX    TMP DP  RH WIND       PRES   REMARKS
BATTLE CREEK   CLEAR     57  53  86 SW6       29.75F
BENTON HARBOR  PTCLDY    58  54  86 CALM      29.75F
BIG RAPIDS     PTCLDY    54  51  89 CALM      29.70F
COLDWATER      CLEAR     58  55  90 W6        29.76S
HOLLAND        CLEAR     58  55  90 SW6       29.74S
GRAND RAPIDS   PTCLDY    59  56  89 S5        29.72F
KALAMAZOO      PTCLDY    58  52  80 SW6       29.75F
MARSHALL       CLEAR     58  54  88 W3        29.74S
MOUNT PLEASANT CLEAR     60  52  75 SW3       29.70F
MUSKEGON       PTCLDY    57  55  93 SW7       29.73S
STURGIS        CLEAR     58  55  89 SW3       29.76S
$$
MIZ016>042-290500-
NORTHERN LOWER MICHIGAN

CITY           SKY/WX    TMP DP  RH WIND       PRES   REMARKS
ALPENA         FOG       57  57 100 CALM      29.69R VSB 1/4
BEAVER ISLAND  DRIZZLE   55  55  98 S7        29.65F
BELLAIRE       CLOUDY    56  54  92 NW3       29.69R
CADILLAC       PTCLDY    56  53  89 SW5       29.69F
CHARLEVOIX     RAIN      56  56 100 S7        29.71F
GAYLORD        PTCLDY    57  53  86 CALM      29.68F
HOUGHTON LAKE  CLEAR     59  53  80 W3        29.70S
MANISTEE       CLEAR     59  50  72 SW7       29.68F
OSCODA         CLOUDY    55  53  92 CALM      29.68S
PELLSTON       CLOUDY    56  52  86 E5        29.66F
TRAVERSE CITY  MOCLDY    60  54  80 CALM      29.67R
LUDINGTON      CLEAR     55  53  91 SW7       29.70S
$$
MIZ007>008-015-290500-
EASTERN UPPER MICHIGAN

CITY           SKY/WX    TMP DP  RH WIND       PRES   REMARKS
KINROSS        FOG       51  51 100 S3        29.66F VSB 1/4
MACKINAC ISLAN CLOUDY    54  54 100 S3        29.66S FOG
NEWBERRY       CLOUDY    53  52  97 S10       29.64S
S. S. MARIE    CLOUDY    55  54  96 SE5       29.65S FOG
$$
MIZ004>006-011>014-085-290500-
CENTRAL UPPER MICHIGAN

CITY           SKY/WX    TMP DP  RH WIND       PRES   REMARKS
MANISTIQUE     FOG       49  46  90 S7        29.65S VSB 1/4
ESCANABA       FOG       52  52 100 CALM      29.65F VSB 1/2
SAWYER-GWINN   CLOUDY    52  51  97 S7        29.64F FOG
$$
MIZ001>003-009>011-084-290500-
WESTERN UPPER MICHIGAN

CITY           SKY/WX    TMP DP  RH WIND       PRES   REMARKS
IRON MOUNTAIN  MOCLDY    54  51  90 CALM      29.64F
HOUGHTON       CLOUDY    53  50  89 W9        29.61S
COPPER HARBOR    N/A     51  49  92 CALM      29.61S
IRONWOOD       MOCLDY    51  50  96 SW3       29.63F
$$

ABBREVIATIONS USED IN REMARKS
   TC - TEMPERATURE IN CELSIUS
  WCI - WIND CHILL INDEX
   HX - HEAT INDEX
  VSB - VISIBILITY





USA.gov is the U.S. government's official web portal to all federal, state and local government web resources and services.